TimeCDT,TemperatureF,Dew PointF,Humidity,Sea Level PressureIn,VisibilityMPH,Wind Direction,Wind SpeedMPH,Gust SpeedMPH,PrecipitationIn,Events,Conditions,WindDirDegrees,DateUTC
12:10 AM,39.2,39.2,100,30.08,0.8,Calm,Calm,-,N/A,,Mist,0,2013-10-20 05:10:00
12:30 AM,39.2,37.4,93,30.08,0.5,Calm,Calm,-,N/A,Fog,Fog,0,2013-10-20 05:30:00
12:50 AM,39.2,37.4,93,30.08,0.8,Calm,Calm,-,N/A,,Mostly Cloudy,0,2013-10-20 05:50:00
1:10 AM,37.4,37.4,100,30.09,10.0,Calm,Calm,-,N/A,,Partly Cloudy,0,2013-10-20 06:10:00
1:30 AM,37.4,37.4,100,30.08,8.0,Calm,Calm,-,N/A,,Clear,0,2013-10-20 06:30:00
1:50 AM,37.4,35.6,93,30.08,0.5,Calm,Calm,-,N/A,Fog,Fog,0,2013-10-20 06:50:00
2:10 AM,37.4,35.6,93,30.08,1.8,Calm,Calm,-,N/A,,Mostly Cloudy,0,2013-10-20 07:10:00
2:30 AM,37.4,35.6,93,30.08,0.2,Calm,Calm,-,N/A,Fog,Fog,0,2013-10-20 07:30:00
2:50 AM,37.4,37.4,100,30.08,0.2,Calm,Calm,-,N/A,Fog,Fog,0,2013-10-20 07:50:00
3:10 AM,37.4,35.6,93,30.08,0.2,Calm,Calm,-,N/A,Fog,Fog,0,2013-10-20 08:10:00
3:30 AM,37.4,35.6,93,30.08,1.0,Calm,Calm,-,N/A,,Overcast,0,2013-10-20 08:30:00
3:50 AM,37.4,35.6,93,30.08,2.0,Calm,Calm,-,N/A,,Overcast,0,2013-10-20 08:50:00
4:10 AM,37.4,35.6,93,30.08,1.2,Calm,Calm,-,N/A,,Overcast,0,2013-10-20 09:10:00
4:30 AM,37.4,35.6,93,30.08,0.2,Calm,Calm,-,N/A,Fog,Fog,0,2013-10-20 09:30:00
4:50 AM,37.4,35.6,93,30.08,0.2,Calm,Calm,-,N/A,Fog,Fog,0,2013-10-20 09:50:00
5:10 AM,35.6,35.6,100,30.09,0.5,SSE,3.5,-,N/A,Fog,Fog,160,2013-10-20 10:10:00
5:30 AM,35.6,35.6,100,30.09,0.5,Calm,Calm,-,N/A,Fog,Fog,0,2013-10-20 10:30:00
5:50 AM,35.6,35.6,100,30.09,0.5,Calm,Calm,-,N/A,Fog,Fog,0,2013-10-20 10:50:00
6:10 AM,35.6,35.6,100,30.10,0.8,Calm,Calm,-,N/A,,Overcast,0,2013-10-20 11:10:00
6:30 AM,35.6,35.6,100,30.10,2.5,Calm,Calm,-,N/A,,Overcast,0,2013-10-20 11:30:00
6:50 AM,35.6,35.6,100,30.10,10.0,Calm,Calm,-,N/A,,Overcast,0,2013-10-20 11:50:00
7:10 AM,35.6,35.6,100,30.10,10.0,Calm,Calm,-,N/A,,Overcast,0,2013-10-20 12:10:00
7:30 AM,35.6,35.6,100,30.10,1.8,Calm,Calm,-,N/A,,Overcast,0,2013-10-20 12:30:00
7:50 AM,37.4,35.6,93,30.11,1.0,Calm,Calm,-,N/A,,Mostly Cloudy,0,2013-10-20 12:50:00
8:10 AM,39.2,37.4,93,30.12,4.0,Calm,Calm,-,N/A,,Mostly Cloudy,0,2013-10-20 13:10:00
8:30 AM,41.0,39.2,93,30.12,2.0,Calm,Calm,-,N/A,,Overcast,0,2013-10-20 13:30:00
8:50 AM,42.8,41.0,93,30.13,10.0,Calm,Calm,-,N/A,,Scattered Clouds,0,2013-10-20 13:50:00
9:10 AM,44.6,41.0,87,30.13,10.0,Calm,Calm,-,N/A,,Clear,0,2013-10-20 14:10:00
9:30 AM,48.2,42.8,82,30.13,10.0,SE,3.5,-,N/A,,Clear,140,2013-10-20 14:30:00
9:50 AM,50.0,41.0,71,30.13,10.0,ESE,3.5,-,N/A,,Clear,120,2013-10-20 14:50:00
10:10 AM,53.6,42.8,67,30.13,10.0,Calm,Calm,-,N/A,,Clear,0,2013-10-20 15:10:00
10:30 AM,53.6,41.0,62,30.12,10.0,Calm,Calm,-,N/A,,Clear,0,2013-10-20 15:30:00
10:50 AM,55.4,39.2,54,30.12,10.0,East,3.5,-,N/A,,Clear,80,2013-10-20 15:50:00
11:10 AM,57.2,35.6,44,30.12,10.0,Calm,Calm,-,N/A,,Clear,0,2013-10-20 16:10:00
11:30 AM,57.2,35.6,44,30.11,10.0,Calm,Calm,-,N/A,,Clear,0,2013-10-20 16:30:00
11:50 AM,59.0,35.6,42,30.11,10.0,Calm,Calm,-,N/A,,Clear,0,2013-10-20 16:50:00
12:10 PM,59.0,35.6,42,30.10,10.0,Calm,Calm,-,N/A,,Clear,0,2013-10-20 17:10:00
12:30 PM,62.6,35.6,37,30.09,10.0,Calm,Calm,-,N/A,,Clear,0,2013-10-20 17:30:00
12:50 PM,60.8,35.6,39,30.09,10.0,Calm,Calm,-,N/A,,Clear,0,2013-10-20 17:50:00
1:10 PM,62.6,35.6,37,30.08,10.0,NNW,4.6,-,N/A,,Clear,340,2013-10-20 18:10:00
1:30 PM,62.6,35.6,37,30.07,10.0,South,3.5,-,N/A,,Clear,190,2013-10-20 18:30:00
1:50 PM,62.6,33.8,34,30.06,10.0,SSE,4.6,-,N/A,,Clear,150,2013-10-20 18:50:00
2:10 PM,64.4,35.6,34,30.05,10.0,WSW,3.5,-,N/A,,Clear,250,2013-10-20 19:10:00
2:30 PM,64.4,35.6,34,30.04,10.0,Calm,Calm,-,N/A,,Clear,0,2013-10-20 19:30:00
2:50 PM,64.4,35.6,34,30.04,10.0,North,4.6,-,N/A,,Clear,360,2013-10-20 19:50:00
3:10 PM,64.4,35.6,34,30.04,10.0,Calm,Calm,-,N/A,,Clear,0,2013-10-20 20:10:00
3:30 PM,66.2,35.6,32,30.04,10.0,NW,3.5,-,N/A,,Clear,310,2013-10-20 20:30:00
3:50 PM,66.2,35.6,32,30.03,10.0,Calm,Calm,-,N/A,,Clear,0,2013-10-20 20:50:00
4:10 PM,64.4,33.8,32,30.03,10.0,Calm,Calm,-,N/A,,Clear,0,2013-10-20 21:10:00
4:30 PM,64.4,32.0,30,30.03,10.0,Calm,Calm,-,N/A,,Clear,0,2013-10-20 21:30:00
4:50 PM,64.4,32.0,30,30.02,10.0,Calm,Calm,-,N/A,,Clear,0,2013-10-20 21:50:00
5:10 PM,64.4,35.6,34,30.02,10.0,SW,4.6,-,N/A,,Clear,220,2013-10-20 22:10:00
5:30 PM,64.4,35.6,34,30.02,10.0,Calm,Calm,-,N/A,,Clear,0,2013-10-20 22:30:00
5:50 PM,62.6,41.0,45,30.02,10.0,Calm,Calm,-,N/A,,Clear,0,2013-10-20 22:50:00
6:10 PM,57.2,42.8,59,30.02,10.0,Calm,Calm,-,N/A,,Clear,0,2013-10-20 23:10:00
6:30 PM,53.6,44.6,72,30.02,10.0,Calm,Calm,-,N/A,,Clear,0,2013-10-20 23:30:00
6:50 PM,51.8,44.6,76,30.02,10.0,Calm,Calm,-,N/A,,Clear,0,2013-10-20 23:50:00
7:10 PM,48.2,44.6,87,30.03,10.0,SSE,3.5,-,N/A,,Clear,150,2013-10-21 00:10:00
7:30 PM,48.2,44.6,87,30.03,10.0,Calm,Calm,-,N/A,,Clear,0,2013-10-21 00:30:00
7:50 PM,48.2,44.6,87,30.03,10.0,Calm,Calm,-,N/A,,Clear,0,2013-10-21 00:50:00
8:10 PM,46.4,44.6,93,30.03,10.0,Calm,Calm,-,N/A,,Clear,0,2013-10-21 01:10:00
8:30 PM,48.2,44.6,87,30.04,10.0,Calm,Calm,-,N/A,,Clear,0,2013-10-21 01:30:00
8:50 PM,46.4,44.6,93,30.03,10.0,Calm,Calm,-,N/A,,Clear,0,2013-10-21 01:50:00
9:10 PM,46.4,44.6,93,30.04,10.0,Calm,Calm,-,N/A,,Clear,0,2013-10-21 02:10:00
9:30 PM,44.6,42.8,93,30.04,10.0,Calm,Calm,-,N/A,,Clear,0,2013-10-21 02:30:00
9:50 PM,44.6,42.8,93,30.04,10.0,Calm,Calm,-,N/A,,Clear,0,2013-10-21 02:50:00
10:10 PM,44.6,42.8,93,30.05,10.0,Calm,Calm,-,N/A,,Clear,0,2013-10-21 03:10:00
10:30 PM,44.6,41.0,87,30.05,9.0,Calm,Calm,-,N/A,,Clear,0,2013-10-21 03:30:00
10:50 PM,44.6,41.0,87,30.05,10.0,Calm,Calm,-,N/A,,Clear,0,2013-10-21 03:50:00
11:10 PM,42.8,41.0,93,30.05,9.0,Calm,Calm,-,N/A,,Clear,0,2013-10-21 04:10:00
11:30 PM,42.8,41.0,93,30.04,10.0,Calm,Calm,-,N/A,,Clear,0,2013-10-21 04:30:00
11:50 PM,41.0,39.2,93,30.04,10.0,Calm,Calm,-,N/A,,Clear,0,2013-10-21 04:50:00